sat.trackr.live / text

‹ back to catalog

EUTELSAT KA-SAT 9A

NORAD 37258 · 2010-069A

PAYLOAD ACTIVE UNKNOWN

§ Identity

Operator
Country
EUTE
Launch date
2010-12-26
Launch site
TYMSC
Launch vehicle
Mass (kg)
RCS (m²)
15.85

Purposes: comms

External: N2YO · Heavens-Above · Gunter

§ Orbital elements

Epoch: 2026-09-13T01:55:20.920800Z

Period
1,436.06 min
Inclination
0.0737°
Eccentricity
0.0005535
Mean motion
1.00274071 rev/d
Perigee alt
35,762.6 km
Apogee alt
35,809.3 km
Semi-major
42,164.1 km
B*
0.0000e+0
RAAN
352.4646°
Arg perigee
178.3123°
Mean anomaly
219.1501°
Rev number
4,488

§ Raw data

EUTELSAT KA-SAT 9A1 37258U 10069A   26256.08010325  .00000050  00000+0  00000+0 0  99942 37258   0.0737 352.4646 0005535 178.3123 219.1501  1.00274071 44882

JSON: /api/v1/satellites/37258 · /tle

For live sub-satellite position, see the globe view (requires WebGL).

§ Visibility from observer

Set your observer location to see the next 7 days of passes ≥ 10°. The values pass through the URL so the page stays shareable.

No JS? Fill the form by hand. The geolocation button needs JavaScript.